Regional Weather Roundup
Issued by NWS

Home | Current Version | Previous Version | Graphics & Text | Print | Product List | Glossary On
Versions: 1 2 3 4 5 6 7 8 9 10 11 12 13 14 15 16 17 18 19 20 21 22 23 24 25 26 27 28 29 30 31 32 33 34 35 36 37 38 39 40 41 42 43 44 45 46 47 48 49 50
000
ASUS43 KFSD 191210
RWRSD

WEATHER ROUNDUP FOR SOUTH DAKOTA
NATIONAL WEATHER SERVICE SIOUX FALLS SD
700 AM CDT TUE SEP 19 2017

NOTE: "FAIR" INDICATES FEW OR NO CLOUDS BELOW 12,000 FEET WITH NO
SIGNIFICANT WEATHER AND/OR OBSTRUCTIONS TO VISIBILITY.


SDZ001>005-009-010-012>017-191300-
NORTHWEST AND NORTH CENTRAL SOUTH DAKOTA

CITY           SKY/WX    TMP DP  RH WIND       PRES   REMARKS
BUFFALO          N/A     59  43  55 W10       29.43F
FAITH            N/A     63  50  62 S13       29.53F
MOBRIDGE       CLOUDY    63  59  87 SE14      29.56F
$$

SDZ012>016-024>037-041>051-057-063-072>074-191300-
SOUTHWEST AND SOUTH CENTRAL SOUTH DAKOTA

CITY           SKY/WX    TMP DP  RH WIND       PRES   REMARKS
RAPID CTY ARPT CLEAR     57  46  67 SE7       29.56
PIERRE         PTCLDY    61  58  90 SE13      29.59F
CUSTER         CLOUDY    55  40  56 S7        29.67F
ELLSWORTH AFB  PTCLDY    61  47  59 S13G20    29.54F
PHILIP         CLOUDY    67  57  70 SE3       29.55F
PINE RIDGE     CLOUDY    65  55  70 S21G31    29.61F
SPEARFISH      FAIR      63  39  42 W14       29.58R
WINNER         FAIR      66  60  81 S12       29.64F
$$

SDZ004>011-016>023-039-040-191300-
NORTHEAST SOUTH DAKOTA

CITY           SKY/WX    TMP DP  RH WIND       PRES   REMARKS
ABERDEEN       CLOUDY    66  65  96 SE13      29.70F
WATERTOWN      CLOUDY    64  64 100 SE13      29.77S FOG
BROOKINGS      CLOUDY    65  64  97 SE12      29.80F
SISSETON         N/A     64  64 100 SE12      29.75F
$$

SDZ017-020-022-023-036>040-048>070-191300-
SOUTHEAST SOUTH DAKOTA

CITY           SKY/WX    TMP DP  RH WIND       PRES   REMARKS
SIOUX FALLS    DRZL/FOG  66  66 100 S12       29.80S VSB 3/4
HURON          CLOUDY    67  65  93 SE12      29.71F
CHAMBERLAIN    FOG       62  62 100 E14       29.66F VSB 1/2
MITCHELL       CLOUDY    67  65  93 SE15G24   29.72F
YANKTON        CLOUDY    67  65  93 SE9       29.76F
$$

ABBREVIATIONS USED IN REMARKS
   TC - TEMPERATURE IN CELSIUS
  WCI - WIND CHILL INDEX
   HX - HEAT INDEX
  VSB - VISIBILITY





USA.gov is the U.S. government's official web portal to all federal, state and local government web resources and services.